COSMOS 1932 DEB

Satellite information

Favourite Embed

Satellite Type and Status

DEBRISIN ORBIT

Key statistics

Satellite COSMOS 1932 DEB at a glance.

Uptime

13693

Days in orbit

Revolutions

≈ 13.8

Per day

Orbit

LEO

Low Earth Orbit

Inclination

65.0

Latest

Satellite identification and parameters

Extended collection of information and parameters for COSMOS 1932 DEB.

Object identification

Identified? True

Debris? True

Object name: COSMOS 1932 DEB

International designator: 1988-019G

Object number (NORAD): 38845

Object ID (CCSDS): 38845

Country: COMMONWEALTH OF INDEPENDENT STATES (CIS)

Current information (Y/N): Y

RCS size: SMALL

Orbital parameters

Period: 104.264 minutes

Inclination: 65.0429 deg

SMA: 7338.08 km

Apoapsis: 998.497 km

Periapsis: 921.393 km

RAAN: 176.8806 deg

Eccentricy: 0.0052537

Argument of periapsis: 318.8738 deg

Mean anomaly: 218.7628 deg

Mean motion: 13.8111266 rev/day

Mean motion (dot): 0.00000066 rev/day2

B* drag term: 0.00014395 1/REarth

Two-line elements (TLE)

Creation date: Aug. 18, 2025, 11:06 p.m.

Reference frame: TEME

Reference center: EARTH

Epoch: Aug. 18, 2025, 2:09 p.m. UTC

TLE line 0: 0 COSMOS 1932 DEB

TLE line 1: 1 38845U 88019G 25230.58995913 .00000066 00000-0 14395-3 0 9992

TLE line 2: 2 38845 65.0429 176.8806 0052537 318.8738 218.7628 13.81112660691742

Live tracking on map

Real-time ground track for satellite COSMOS 1932 DEB.

In-orbit conjunctions

A list of the most updated potential collisions computed for object COSMOS 1932 DEB.

Target Orbit TCA Probability of collision Miss distance Type
COSMOS 928 LEO 2025-08-01 10:05:46 0.0002367446 194.0 (m) PAYLOAD

Associated space launch

Active radar satellite for ocean surveillance powered by a nuclear reactor.

COSMOS 1932 DEB was lifted into orbit during the mission ‘Tsiklon-2 | US-A 32’, on board a Tsiklon-2 space rocket.

The launch took place on March 14, 1988, 2:21 p.m. from 90.

For more information about the launch, click the button.

Launch to space Tsiklon-2 | US-A 32
Tsiklon-2 | US-A 32

Agency: N/A

Status: Launch Successful

Launch date: March 14, 1988, 2:21 p.m. UTC

Rocket: Tsiklon-2

Launch pad: 90

Location: Baikonur Cosmodrome, Republic of Kazakhstan

...

Latest news about this satellite

There are no fresh news available about this satellite. Check back as we update our databases every day.


Newsletter sign-up

Weekly statistics, charts and insights to help you stay on top of the space industry.